This is the latest recevied weather packets stored in our database for station/object KC1OEK-13. If no packets are shown the sender has not sent any weather packets the latest 10 day(s).
| Time | Temp. | Humidity | Pressure | Rain* | Wind** | Luminosity | Snow |
|---|---|---|---|---|---|---|---|
| 1777579040 | 13.33° C | 83% | 1007.6 hPa | 0 mm | - | 63 W/m² | - |
| 1777578735 | 12.78° C | 83% | 1007.7 hPa | 0 mm | - | 65 W/m² | - |
| 1777578435 | 12.78° C | 82% | 1007.6 hPa | 0 mm | - | 57 W/m² | - |
| 1777578131 | 12.78° C | 83% | 1007.6 hPa | 0 mm | - | 59 W/m² | - |
| 1777577827 | 12.78° C | 83% | 1007.7 hPa | 0 mm | - | 46 W/m² | - |
| 1777577523 | 13.33° C | 82% | 1007.5 hPa | 0 mm | - | 38 W/m² | - |
| 1777577220 | 13.33° C | 81% | 1007.6 hPa | 0 mm | - | 38 W/m² | - |
| 1777576915 | 13.89° C | 82% | 1007.7 hPa | 0 mm | - | 44 W/m² | - |
| 1777576611 | 13.33° C | 81% | 1007.7 hPa | 0 mm | - | 54 W/m² | - |
| 1777576306 | 13.33° C | 82% | 1007.7 hPa | 0 mm | - | 74 W/m² | - |
| 1777576003 | 12.78° C | 81% | 1007.8 hPa | 0 mm | - | 94 W/m² | - |
| 1777575699 | 12.78° C | 82% | 1007.8 hPa | 0 mm | - | 105 W/m² | - |
| 1777575395 | 12.78° C | 81% | 1007.8 hPa | 0 mm | - | 96 W/m² | - |
| 1777575091 | 13.33° C | 83% | 1007.7 hPa | 0 mm | - | 88 W/m² | - |
| 1777574787 | 13.33° C | 82% | 1007.8 hPa | 0 mm | - | 68 W/m² | - |
| 1777574485 | 13.33° C | 80% | 1007.8 hPa | 0 mm | - | 65 W/m² | - |
| 1777574181 | 13.33° C | 79% | 1007.6 hPa | 0 mm | - | 177 W/m² | - |
| 1777573876 | 13.89° C | 78% | 1007.7 hPa | 0 mm | - | 207 W/m² | - |
| 1777573571 | 13.89° C | 80% | 1007.6 hPa | 0 mm | - | 177 W/m² | - |
| 1777573267 | 14.44° C | 78% | 1007.7 hPa | 0 mm | - | 327 W/m² | - |
| 1777572964 | 13.33° C | 84% | 1007.9 hPa | 0 mm | - | 535 W/m² | - |
| 1777572660 | 12.78° C | 85% | 1007.7 hPa | 0 mm | - | 265 W/m² | - |
| 1777572359 | 12.78° C | 87% | 1007.8 hPa | 0 mm | - | 174 W/m² | - |
| 1777572056 | 12.78° C | 87% | 1007.7 hPa | 0 mm | - | 111 W/m² | - |
| 1777571756 | 12.22° C | 85% | 1007.7 hPa | 0 mm | - | 220 W/m² | - |
* Rain latest hour (hover to see other rain measurements)
** Current wind speed in m/s (hover to see current wind gust speed)